Radiation Dose at Monitoring Post of Fukushima Daini Nuclear Power Station
Date,Time,MP-1(microSv/h),MP-2(microSv/h),MP-3(microSv/h),MP-4(microSv/h),MP-5(microSv/h),MP-6(microSv/h),MP-7(microSv/h),Wind Direction,Wind Velocity(m/s),Rain
2016/12/28,00:00,0.388,0.239,0.403,0.374,0.340,0.194,0.165,north,6.0,No
2016/12/28,00:10,0.389,0.239,0.402,0.373,0.341,0.194,0.165,north,4.2,No
2016/12/28,00:20,0.389,0.238,0.402,0.371,0.341,0.193,0.166,north,5.2,No
2016/12/28,00:30,0.386,0.238,0.401,0.374,0.342,0.193,0.166,north,5.8,No
2016/12/28,00:40,0.389,0.239,0.401,0.373,0.342,0.194,0.165,north,5.4,No
2016/12/28,00:50,0.389,0.239,0.402,0.371,0.342,0.193,0.165,north,4.8,No
2016/12/28,01:00,0.387,0.238,0.403,0.373,0.341,0.195,0.165,north,5.7,No
2016/12/28,01:10,0.388,0.238,0.402,0.374,0.340,0.192,0.166,north,5.4,No
2016/12/28,01:20,0.388,0.239,0.402,0.371,0.341,0.194,0.165,north,4.8,No
2016/12/28,01:30,0.388,0.239,0.402,0.373,0.342,0.193,0.165,north-northwest,4.5,No
2016/12/28,01:40,0.389,0.238,0.403,0.372,0.341,0.194,0.165,north-northwest,5.0,No
2016/12/28,01:50,0.390,0.238,0.402,0.372,0.341,0.194,0.166,north,5.6,No
2016/12/28,02:00,0.389,0.239,0.402,0.372,0.341,0.193,0.165,north,4.8,No
2016/12/28,02:10,0.389,0.239,0.402,0.373,0.341,0.194,0.166,north-northwest,2.6,No
2016/12/28,02:20,0.387,0.237,0.403,0.372,0.340,0.194,0.165,north,3.5,No
2016/12/28,02:30,0.389,0.239,0.401,0.372,0.344,0.194,0.166,north,4.8,No
2016/12/28,02:40,0.392,0.239,0.402,0.372,0.341,0.193,0.165,north,3.7,No
2016/12/28,02:50,0.388,0.239,0.403,0.373,0.341,0.193,0.164,north,4.1,No
2016/12/28,03:00,0.388,0.239,0.403,0.372,0.338,0.193,0.165,north,2.2,No
2016/12/28,03:10,0.390,0.240,0.400,0.373,0.341,0.195,0.165,northwest,2.5,No
2016/12/28,03:20,0.388,0.238,0.403,0.372,0.340,0.195,0.165,northwest,3.6,No
2016/12/28,03:30,0.388,0.238,0.404,0.374,0.341,0.193,0.165,north,4.0,No
2016/12/28,03:40,0.390,0.239,0.401,0.373,0.340,0.194,0.165,north-northwest,4.6,No
2016/12/28,03:50,0.390,0.240,0.402,0.371,0.341,0.195,0.166,north-northwest,5.9,No
2016/12/28,04:00,0.389,0.239,0.403,0.373,0.341,0.193,0.165,northwest,5.8,No
2016/12/28,04:10,0.388,0.239,0.403,0.374,0.341,0.193,0.166,west-northwest,8.6,No
2016/12/28,04:20,0.389,0.239,0.403,0.371,0.340,0.194,0.164,northwest,5.5,No
2016/12/28,04:30,0.390,0.239,0.402,0.373,0.339,0.194,0.165,northwest,6.7,No
2016/12/28,04:40,0.389,0.239,0.402,0.374,0.342,0.194,0.165,northwest,4.8,No
2016/12/28,04:50,0.389,0.239,0.405,0.373,0.341,0.194,0.166,north,7.0,No
2016/12/28,05:00,0.388,0.239,0.402,0.373,0.339,0.193,0.165,north,8.8,No
2016/12/28,05:10,0.390,0.239,0.401,0.372,0.340,0.192,0.166,north-northwest,10.3,No
2016/12/28,05:20,0.392,0.241,0.405,0.374,0.342,0.195,0.165,north-northwest,12.0,Yes
2016/12/28,05:30,0.395,0.247,0.407,0.377,0.347,0.200,0.172,north-northwest,12.3,Yes
2016/12/28,05:40,0.396,0.248,0.407,0.378,0.346,0.200,0.171,north-northwest,9.6,No
2016/12/28,05:50,0.396,0.247,0.408,0.377,0.345,0.200,0.171,north,10.4,No
2016/12/28,06:00,0.397,0.246,0.406,0.378,0.346,0.198,0.171,north,11.6,No
2016/12/28,06:10,0.396,0.245,0.407,0.377,0.345,0.199,0.171,north-northwest,10.0,No
2016/12/28,06:20,0.395,0.245,0.406,0.374,0.344,0.198,0.170,north-northwest,10.4,No
2016/12/28,06:30,0.394,0.244,0.406,0.377,0.344,0.197,0.168,north-northwest,9.1,No
2016/12/28,06:40,0.393,0.242,0.404,0.375,0.343,0.196,0.168,north-northwest,8.6,No
2016/12/28,06:50,0.391,0.241,0.404,0.375,0.343,0.197,0.168,north,9.4,No
2016/12/28,07:00,0.392,0.242,0.404,0.373,0.342,0.196,0.168,north-northwest,8.7,No
2016/12/28,07:10,0.391,0.242,0.405,0.373,0.343,0.195,0.167,north-northwest,7.8,No
2016/12/28,07:20,0.390,0.241,0.404,0.374,0.341,0.196,0.166,north-northwest,8.1,No
2016/12/28,07:30,0.390,0.239,0.404,0.374,0.341,0.195,0.166,north,7.8,No
2016/12/28,07:40,0.390,0.239,0.404,0.371,0.341,0.195,0.166,north,7.5,No
2016/12/28,07:50,0.389,0.240,0.403,0.372,0.342,0.195,0.165,north,6.1,No
2016/12/28,08:00,0.390,0.239,0.403,0.372,0.341,0.194,0.166,north,6.1,No
2016/12/28,08:10,0.391,0.239,0.402,0.372,0.342,0.194,0.166,north-northwest,6.8,Yes
2016/12/28,08:20,0.389,0.241,0.405,0.372,0.344,0.196,0.167,north-northwest,4.5,Yes
2016/12/28,08:30,0.391,0.242,0.408,0.378,0.347,0.200,0.170,north-northwest,5.9,Yes
2016/12/28,08:40,0.392,0.243,0.408,0.378,0.347,0.200,0.171,north,5.2,No
2016/12/28,08:50,0.392,0.242,0.407,0.375,0.347,0.199,0.170,north-northwest,5.3,No
2016/12/28,09:00,0.390,0.242,0.408,0.375,0.344,0.199,0.170,north,8.6,Yes
2016/12/28,09:10,0.390,0.241,0.405,0.375,0.344,0.197,0.169,north,7.5,Yes
2016/12/28,09:20,0.393,0.241,0.404,0.375,0.344,0.197,0.168,north,8.4,Yes
2016/12/28,09:30,0.393,0.241,0.405,0.376,0.343,0.198,0.170,north,8.2,Yes
2016/12/28,09:40,0.392,0.242,0.406,0.375,0.344,0.198,0.170,north,7.9,No
2016/12/28,09:50,0.392,0.241,0.405,0.376,0.343,0.197,0.168,north,6.4,No
2016/12/28,10:00,0.391,0.240,0.403,0.374,0.343,0.196,0.168,north-northwest,5.4,No
2016/12/28,10:10,0.391,0.241,0.401,0.375,0.343,0.196,0.168,north-northwest,4.6,No
2016/12/28,10:20,0.391,0.240,0.403,0.373,0.342,0.195,0.168,north,6.9,No
2016/12/28,10:30,0.392,0.239,0.402,0.373,0.341,0.195,0.166,north,8.2,Yes
2016/12/28,10:40,0.390,0.240,0.402,0.372,0.341,0.195,0.167,north,8.2,No
2016/12/28,10:50,0.391,0.240,0.402,0.372,0.344,0.195,0.167,north,6.7,No
2016/12/28,11:00,0.388,0.241,0.402,0.373,0.343,0.194,0.167,north,8.0,No
2016/12/28,11:10,0.391,0.241,0.400,0.374,0.342,0.194,0.165,north,8.7,No
2016/12/28,11:20,0.393,0.241,0.402,0.372,0.344,0.195,0.167,north,7.3,Yes
2016/12/28,11:30,0.393,0.242,0.403,0.374,0.342,0.195,0.167,north,5.1,Yes
2016/12/28,11:40,0.392,0.243,0.402,0.372,0.343,0.194,0.166,north,4.7,No
2016/12/28,11:50,0.392,0.241,0.400,0.372,0.342,0.194,0.166,north,5.5,No
2016/12/28,12:00,0.392,0.240,0.402,0.374,0.344,0.196,0.166,north,4.7,No
2016/12/28,12:10,0.391,0.240,0.403,0.372,0.342,0.193,0.167,north-northeast,3.3,No
2016/12/28,12:20,0.392,0.240,0.400,0.371,0.341,0.194,0.167,north,6.2,No
2016/12/28,12:30,0.388,0.241,0.401,0.373,0.343,0.195,0.166,north-northeast,7.9,No
2016/12/28,12:40,0.389,0.239,0.398,0.371,0.342,0.194,0.165,north,7.3,No
2016/12/28,12:50,0.388,0.239,0.399,0.373,0.342,0.194,0.165,north,7.3,No
2016/12/28,13:00,0.391,0.240,0.400,0.371,0.343,0.195,0.166,north-northeast,7.7,No
2016/12/28,13:10,0.388,0.241,0.399,0.373,0.341,0.194,0.166,north-northeast,5.2,No
2016/12/28,13:20,0.389,0.240,0.401,0.373,0.343,0.193,0.166,north-northeast,7.5,Yes
2016/12/28,13:30,0.390,0.240,0.403,0.373,0.343,0.194,0.166,north,6.1,No
2016/12/28,13:40,0.389,0.240,0.399,0.374,0.341,0.196,0.166,north,4.4,No
2016/12/28,13:50,0.392,0.240,0.401,0.373,0.341,0.195,0.165,north,4.5,No
2016/12/28,14:00,0.392,0.240,0.403,0.374,0.342,0.194,0.165,north,6.2,No
2016/12/28,14:10,0.389,0.239,0.400,0.374,0.341,0.194,0.166,north-northeast,8.2,No
2016/12/28,14:20,0.389,0.240,0.401,0.372,0.342,0.194,0.166,north,5.5,No
2016/12/28,14:30,0.392,0.240,0.401,0.373,0.342,0.194,0.165,north,5.3,No
2016/12/28,14:40,0.389,0.240,0.401,0.374,0.342,0.194,0.166,north-northeast,6.8,No
2016/12/28,14:50,0.389,0.240,0.400,0.374,0.341,0.193,0.165,north,6.1,No
2016/12/28,15:00,0.390,0.240,0.402,0.374,0.342,0.193,0.166,north,5.6,No
2016/12/28,15:10,0.390,0.239,0.401,0.374,0.341,0.194,0.166,north-northeast,1.9,No
2016/12/28,15:20,0.389,0.241,0.401,0.373,0.341,0.193,0.166,north,0.9,No
2016/12/28,15:30,0.390,0.239,0.401,0.371,0.340,0.193,0.165,north,3.1,No
2016/12/28,15:40,0.391,0.239,0.404,0.375,0.341,0.194,0.166,north,2.8,No
2016/12/28,15:50,0.392,0.240,0.401,0.372,0.341,0.194,0.166,north,1.7,No
2016/12/28,16:00,0.390,0.240,0.400,0.374,0.341,0.194,0.165,north-northwest,0.8,No
2016/12/28,16:10,0.389,0.239,0.402,0.373,0.340,0.194,0.165,north-northeast,0.6,No
2016/12/28,16:20,0.389,0.239,0.402,0.372,0.340,0.193,0.164,north,1.7,No
2016/12/28,16:30,0.389,0.240,0.399,0.372,0.341,0.193,0.165,north,3.9,No
2016/12/28,16:40,0.388,0.239,0.401,0.372,0.341,0.193,0.164,north,4.2,No
2016/12/28,16:50,0.389,0.239,0.401,0.373,0.341,0.193,0.164,north,4.0,No
2016/12/28,17:00,0.390,0.238,0.401,0.372,0.341,0.194,0.166,north,3.8,No
2016/12/28,17:10,0.389,0.239,0.399,0.371,0.340,0.194,0.165,north-northwest,3.4,No
2016/12/28,17:20,0.390,0.239,0.400,0.371,0.339,0.193,0.165,north,3.1,No
2016/12/28,17:30,0.390,0.240,0.401,0.372,0.339,0.193,0.163,north,3.9,No
2016/12/28,17:40,0.388,0.239,0.400,0.372,0.340,0.192,0.165,north,4.1,No
2016/12/28,17:50,0.388,0.240,0.400,0.370,0.341,0.193,0.164,north,5.0,No
2016/12/28,18:00,0.389,0.238,0.400,0.372,0.341,0.192,0.165,north-northwest,4.4,No
2016/12/28,18:10,0.390,0.240,0.401,0.373,0.339,0.193,0.165,north-northwest,3.4,No
2016/12/28,18:20,0.389,0.240,0.401,0.372,0.341,0.193,0.165,north-northwest,2.1,No
2016/12/28,18:30,0.390,0.239,0.399,0.371,0.342,0.194,0.164,northwest,2.1,No
2016/12/28,18:40,0.388,0.238,0.401,0.372,0.340,0.193,0.163,northwest,2.3,No
2016/12/28,18:50,0.389,0.240,0.400,0.372,0.339,0.193,0.166,northwest,2.9,No
2016/12/28,19:00,0.390,0.238,0.401,0.372,0.339,0.193,0.164,west-northwest,2.7,No
2016/12/28,19:10,0.388,0.238,0.400,0.373,0.341,0.192,0.164,west,1.3,No
2016/12/28,19:20,0.388,0.242,0.402,0.371,0.340,0.193,0.165,west,2.0,No
2016/12/28,19:30,0.388,0.241,0.401,0.371,0.340,0.193,0.164,west,1.1,No
2016/12/28,19:40,0.387,0.238,0.402,0.372,0.340,0.193,0.165,west-southwest,1.1,No
2016/12/28,19:50,0.389,0.240,0.400,0.372,0.340,0.193,0.163,west-southwest,1.9,No
2016/12/28,20:00,0.389,0.237,0.401,0.371,0.341,0.192,0.165,west-southwest,2.3,No
2016/12/28,20:10,0.388,0.238,0.399,0.370,0.339,0.193,0.164,west-southwest,2.9,No
2016/12/28,20:20,0.387,0.239,0.401,0.372,0.338,0.193,0.165,southwest,1.8,No
2016/12/28,20:30,0.390,0.240,0.402,0.372,0.340,0.193,0.165,southwest,1.9,No
2016/12/28,20:40,0.388,0.238,0.400,0.373,0.340,0.193,0.165,west,1.7,No
2016/12/28,20:50,0.388,0.238,0.399,0.371,0.340,0.192,0.165,west,4.3,No
2016/12/28,21:00,0.389,0.239,0.399,0.372,0.338,0.193,0.166,west-northwest,5.1,No
2016/12/28,21:10,0.389,0.237,0.401,0.371,0.339,0.190,0.164,west-northwest,5.3,No
2016/12/28,21:20,0.389,0.240,0.402,0.370,0.339,0.192,0.165,west-northwest,4.6,No
2016/12/28,21:30,0.389,0.239,0.401,0.372,0.339,0.192,0.164,north-northwest,3.4,No
2016/12/28,21:40,0.388,0.239,0.401,0.371,0.340,0.194,0.165,north-northwest,2.8,No
2016/12/28,21:50,0.388,0.239,0.401,0.372,0.338,0.193,0.163,north-northwest,3.0,No
2016/12/28,22:00,0.389,0.240,0.402,0.371,0.340,0.193,0.164,north-northwest,1.9,No
2016/12/28,22:10,0.389,0.238,0.400,0.371,0.339,0.193,0.164,north-northwest,1.8,No
2016/12/28,22:20,0.387,0.239,0.401,0.371,0.340,0.193,0.165,north-northwest,2.2,No
2016/12/28,22:30,0.389,0.240,0.399,0.371,0.340,0.193,0.165,northwest,3.4,No
2016/12/28,22:40,0.387,0.237,0.402,0.371,0.340,0.192,0.164,north-northwest,2.9,No
2016/12/28,22:50,0.390,0.239,0.402,0.371,0.340,0.192,0.164,north-northwest,1.9,No
2016/12/28,23:00,0.388,0.237,0.400,0.372,0.340,0.192,0.164,west,0.8,No
2016/12/28,23:10,0.388,0.239,0.401,0.371,0.340,0.192,0.164,west-northwest,1.1,No
2016/12/28,23:20,0.389,0.237,0.400,0.371,0.339,0.192,0.164,west-southwest,0.5,No
2016/12/28,23:30,0.389,0.238,0.401,0.371,0.339,0.192,0.166,west-southwest,0.9,No
2016/12/28,23:40,0.390,0.239,0.401,0.371,0.342,0.192,0.164,west-southwest,1.0,No
2016/12/28,23:50,0.389,0.240,0.401,0.370,0.340,0.193,0.165,south-southwest,1.4,No
